Weather History for Eagle River, WI

Change the Weather History Date:

Friday, January 4, 2013

  Actual Average Record
Temperature  
Mean Temperature 22 °F -  
Max Temperature 32 °F 28 °F 39 °F (2007)
Min Temperature 12 °F 14 °F -12 °F (1991)
Degree Days  
Heating Degree Days 43    
Moisture  
Dew Point 13 °F    
Average Humidity 76    
Maximum Humidity 100    
Minimum Humidity 55    
Precipitation  
Precipitation 0.00 in - - ()
Sea Level Pressure  
Sea Level Pressure 29.92 in    
Wind  
Wind Speed 11 mph (West)    
Max Wind Speed 20 mph    
Max Gust Speed 29 mph    
Visibility 10 miles    
Events      
Averages and records for this station are not official NWS values.
T = Trace of Precipitation, MM = Missing Value Source: NWS Daily Summary

Daily Weather History Graph

Daily Weather History Graph

Search for Another Location

Airport:

Trip Planner

Search our weather history database for the weather conditions in past years. The results will help you decide how hot, cold, wet, or windy it might be!

Date:

Astronomy

Jan. 04, 2013 Rise Set
Actual Time 7:38 AM CST 4:26 PM CST
Civil Twilight 7:04 AM CST 5:00 PM CST
Nautical Twilight 6:26 AM CST 5:37 PM CST
Astronomical Twilight 5:50 AM CST 6:14 PM CST
Moon No Moon Rise 10:56 AM CST (1/4)
Length of Visible Light 9h 55m
Length of Day
8h 47m
Waning Gibbous, 55% of the Moon is Illuminated
Jan 4
Waning Gibbous
Jan 4
Last Quarter
Jan 11
New
Jan 18
First Quarter
Jan 26
Full

Hourly Weather History & Observations

Time (CST) Temp. Windchill Dew Point Humidity Pressure Visibility Wind Dir Wind Speed Gust Speed Precip Events Conditions
12:15 AM 12.2 °F -5.8 °F 8.6 °F 85% 29.83 in 10.0 mi WSW 19.6 mph 28.8 mph N/A   Clear
12:35 AM 14.0 °F -2.0 °F 8.6 °F 79% 29.84 in 10.0 mi West 16.1 mph 24.2 mph N/A   Clear
12:55 AM 12.2 °F -2.5 °F 8.6 °F 85% 29.84 in 10.0 mi WSW 12.7 mph - N/A   Clear
1:15 AM 12.2 °F -2.5 °F 8.6 °F 85% 29.84 in 10.0 mi WSW 12.7 mph - N/A   Clear
1:35 AM 12.2 °F -2.5 °F 8.6 °F 85% 29.84 in 10.0 mi WSW 12.7 mph 20.7 mph N/A   Clear
1:55 AM 12.2 °F -1.0 °F 6.8 °F 79% 29.85 in 10.0 mi West 10.4 mph 19.6 mph N/A   Clear
2:15 AM 12.2 °F -2.5 °F 6.8 °F 79% 29.86 in 10.0 mi West 12.7 mph - N/A   Clear
2:35 AM 12.2 °F -1.8 °F 6.8 °F 79% 29.86 in 10.0 mi WSW 11.5 mph 17.3 mph N/A   Clear
2:55 AM 12.2 °F -3.1 °F 8.6 °F 85% 29.85 in 10.0 mi West 13.8 mph - N/A   Clear
3:15 AM 12.2 °F -1.8 °F 8.6 °F 85% 29.85 in 10.0 mi West 11.5 mph - N/A   Clear
5:35 AM 12.2 °F -1.0 °F 8.6 °F 85% 29.84 in 10.0 mi West 10.4 mph - N/A   Clear
5:55 AM 12.2 °F -1.8 °F 8.6 °F 85% 29.83 in 10.0 mi West 11.5 mph 17.3 mph N/A   Scattered Clouds
6:15 AM 12.2 °F -1.0 °F 8.6 °F 85% 29.84 in 10.0 mi West 10.4 mph 16.1 mph N/A   Clear
6:35 AM 12.2 °F -1.0 °F 10.4 °F 92% 29.84 in 10.0 mi West 10.4 mph 16.1 mph N/A   Clear
6:55 AM 12.2 °F -1.8 °F 10.4 °F 92% 29.84 in 10.0 mi West 11.5 mph 16.1 mph N/A   Clear
7:35 AM 12.2 °F -1.0 °F 8.6 °F 85% 29.85 in 10.0 mi West 10.4 mph - N/A   Clear
7:55 AM 12.2 °F 0.7 °F 8.6 °F 85% 29.85 in 10.0 mi West 8.1 mph - N/A   Clear
8:15 AM 12.2 °F 0.7 °F 8.6 °F 85% 29.85 in 10.0 mi West 8.1 mph - N/A   Clear
8:35 AM 14.0 °F 2.9 °F 8.6 °F 79% 29.86 in 10.0 mi West 8.1 mph - N/A   Clear
8:55 AM 14.0 °F 1.2 °F 10.4 °F 86% 29.87 in 10.0 mi West 10.4 mph - N/A   Clear
9:15 AM 15.8 °F 3.4 °F 10.4 °F 79% 29.88 in 10.0 mi West 10.4 mph - N/A   Clear
9:35 AM 17.6 °F 4.3 °F 10.4 °F 73% 29.88 in 10.0 mi West 12.7 mph 18.4 mph N/A   Clear
9:55 AM 17.6 °F 7.3 °F 10.4 °F 73% 29.88 in 10.0 mi West 8.1 mph - N/A   Clear
10:15 AM 19.4 °F 7.9 °F 12.2 °F 74% 29.89 in 10.0 mi West 10.4 mph - N/A   Clear
10:35 AM 21.2 °F 11.7 °F 12.2 °F 68% 29.88 in 10.0 mi West 8.1 mph - N/A   Clear
10:55 AM 21.2 °F 9.5 °F 12.2 °F 68% 29.88 in 10.0 mi West 11.5 mph 16.1 mph N/A   Clear
11:15 AM 23.0 °F 11.7 °F 14.0 °F 68% 29.88 in 10.0 mi WSW 11.5 mph - N/A   Clear
11:35 AM 24.8 °F 14.6 °F 14.0 °F 64% 29.88 in 10.0 mi West 10.4 mph - N/A   Clear
11:55 AM 26.6 °F 15.7 °F 15.8 °F 64% 29.88 in 10.0 mi West 12.7 mph 17.3 mph N/A   Clear
12:15 PM 26.6 °F 17.5 °F 15.8 °F 64% 29.88 in 10.0 mi West 9.2 mph - N/A   Clear
12:35 PM 28.4 °F 19.1 °F 17.6 °F 64% 29.87 in 10.0 mi West 10.4 mph - N/A   Clear
12:55 PM 30.2 °F 18.9 °F 17.6 °F 60% 29.88 in 10.0 mi WNW 16.1 mph 21.9 mph N/A   Clear
1:15 PM 30.2 °F 19.3 °F 17.6 °F 60% 29.87 in 10.0 mi West 15.0 mph - N/A   Clear
1:35 PM 32.0 °F 21.6 °F 17.6 °F 55% 29.88 in 10.0 mi WNW 15.0 mph 18.4 mph N/A   Clear
1:55 PM 32.0 °F 22.1 °F 17.6 °F 55% 29.88 in 10.0 mi WNW 13.8 mph 23.0 mph N/A   Clear
2:15 PM 32.0 °F 22.5 °F 17.6 °F 55% 29.88 in 10.0 mi WNW 12.7 mph 18.4 mph N/A   Clear
2:35 PM 32.0 °F 24.2 °F 17.6 °F 55% 29.89 in 10.0 mi WNW 9.2 mph 19.6 mph N/A   Clear
2:55 PM 32.0 °F 23.0 °F 19.4 °F 60% 29.89 in 10.0 mi West 11.5 mph 16.1 mph N/A   Clear
3:15 PM 32.0 °F 23.6 °F 19.4 °F 60% 29.91 in 10.0 mi West 10.4 mph - N/A   Clear
3:35 PM 32.0 °F 25.6 °F 17.6 °F 55% 29.91 in 10.0 mi West 6.9 mph - N/A   Clear
3:55 PM 32.0 °F 24.8 °F 17.6 °F 55% 29.92 in 10.0 mi West 8.1 mph - N/A   Clear
4:15 PM 32.0 °F 24.8 °F 17.6 °F 55% 29.93 in 10.0 mi West 8.1 mph - N/A   Clear
4:35 PM 30.2 °F 22.6 °F 17.6 °F 60% 29.94 in 10.0 mi West 8.1 mph - N/A   Clear
4:55 PM 30.2 °F 22.6 °F 17.6 °F 60% 29.95 in 10.0 mi West 8.1 mph - N/A   Clear
5:15 PM 30.2 °F 23.4 °F 17.6 °F 60% 29.96 in 10.0 mi West 6.9 mph - N/A   Clear
5:35 PM 30.2 °F 23.4 °F 17.6 °F 60% 29.96 in 10.0 mi West 6.9 mph - N/A   Clear
5:55 PM 28.4 °F 22.2 °F 15.8 °F 59% 29.98 in 10.0 mi West 5.8 mph - N/A   Clear
6:15 PM 23.0 °F 15.8 °F 14.0 °F 68% 29.99 in 10.0 mi West 5.8 mph - N/A   Clear
6:35 PM 21.2 °F 12.6 °F 12.2 °F 68% 29.99 in 10.0 mi West 6.9 mph - N/A   Clear
6:55 PM 23.0 °F - 14.0 °F 68% 30.00 in 10.0 mi Calm Calm - N/A   Clear
7:15 PM 23.0 °F - 15.8 °F 74% 30.01 in 10.0 mi Calm Calm - N/A   Clear
7:35 PM 23.0 °F 18.4 °F 15.8 °F 74% 30.01 in 10.0 mi West 3.5 mph - N/A   Clear
7:55 PM 19.4 °F - 14.0 °F 80% 30.01 in 10.0 mi Calm Calm - N/A   Clear
8:15 PM 17.6 °F 12.3 °F 12.2 °F 79% 30.02 in 10.0 mi WSW 3.5 mph - N/A   Clear
8:35 PM 17.6 °F 12.3 °F 12.2 °F 79% 30.02 in 10.0 mi WSW 3.5 mph - N/A   Clear
8:55 PM 15.8 °F 10.2 °F 12.2 °F 86% 30.03 in 10.0 mi WSW 3.5 mph - N/A   Clear
9:15 PM 15.8 °F - 14.0 °F 93% 30.03 in 10.0 mi Calm Calm - N/A   Scattered Clouds
9:35 PM 17.6 °F - 17.6 °F 100% 30.04 in 10.0 mi Calm Calm - N/A   Mostly Cloudy
9:55 PM 14.0 °F 6.5 °F 14.0 °F 100% 30.05 in 10.0 mi WSW 4.6 mph - N/A   Overcast
10:15 PM 15.8 °F - 15.8 °F 100% 30.04 in 10.0 mi Calm Calm - N/A   Overcast
10:35 PM 14.0 °F - 14.0 °F 100% 30.04 in 10.0 mi Calm Calm - N/A   Scattered Clouds
10:55 PM 12.2 °F - 12.2 °F 100% 30.05 in 10.0 mi Calm Calm - N/A   Mostly Cloudy
11:15 PM 12.2 °F - 12.2 °F 100% 30.06 in 10.0 mi Calm Calm - N/A   Overcast
11:35 PM 12.2 °F - 10.4 °F 92% 30.06 in 10.0 mi Calm Calm - N/A   Overcast
11:55 PM 12.2 °F - 12.2 °F 100% 30.05 in 10.0 mi Calm Calm - N/A   Overcast